GW0525 Weather Reports


Display with metric or nautical units.
time (UTC)temp
F
wind
direction
speed
MPH
gust
MPH
rain 1hr
in
rain 24hr
in
rain mn
in
humidity
%
barometer
mb
20260506171558 46 338 9.0 18.0 0.00 0.00 0.00 26 1016.5
20260506170106 45 313 9.0 14.0 0.00 0.00 0.00 27 1016.6
20260506164625 45 271 5.0 16.0 0.00 0.00 0.00 26 1016.8
20260506163108 44 239 6.0 17.0 0.00 0.00 0.00 26 1016.9
20260506161559 44 317 9.0 14.0 0.00 0.00 0.00 26 1017.1
20260506160133 44 309 8.0 14.0 0.00 0.00 0.00 27 1017.2
20260506154606 43 316 5.0 14.0 0.00 0.00 0.00 26 1017.3
20260506153101 42 314 8.0 14.0 0.00 0.00 0.00 26 1017.4
20260506151600 42 290 7.0 14.0 0.00 0.00 0.00 28 1017.4
20260506150107 42 317 8.0 13.0 0.00 0.00 0.00 28 1017.6
20260506144603 42 264 8.0 14.0 0.00 0.00 0.00 28 1017.7
20260506143100 41 282 9.0 13.0 0.00 0.00 0.00 28 1017.8
20260506141600 41 282 7.0 13.0 0.00 0.00 0.00 29 1017.8
20260506140100 41 317 8.0 11.0 0.00 0.00 0.00 32 1017.8
20260506134558 39 289 7.0 12.0 0.00 0.00 0.00 33 1017.8
20260506133109 37 302 8.0 10.0 0.00 0.00 0.00 40 1017.8
20260506131617 35 302 6.0 9.0 0.00 0.00 0.00 43 1017.8
20260506130058 33 298 7.0 10.0 0.00 0.00 0.00 45 1017.8
20260506124559 32 311 3.0 9.0 0.00 0.00 0.00 46 1017.7
20260506123100 31 330 7.0 11.0 0.00 0.00 0.00 46 1017.6
20260506121600 31 302 10.0 14.0 0.00 0.00 0.00 44 1017.6
20260506120110 30 292 10.0 12.0 0.00 0.00 0.00 44 1017.5
20260506114556 30 298 10.0 13.0 0.00 0.00 0.00 46 1017.4
20260506113058 28 299 9.0 13.0 0.00 0.00 0.00 48 1017.4
20260506111557 27 304 8.0 12.0 0.00 0.00 0.00 51 1017.4
20260506110114 29 309 9.0 12.0 0.00 0.00 0.00 49 1017.4
20260506104615 29 301 9.0 12.0 0.00 0.00 0.00 48 1017.3
20260506103059 30 295 9.0 12.0 0.00 0.00 0.00 47 1017.5
20260506101600 30 296 9.0 12.0 0.00 0.00 0.00 47 1017.4
20260506100113 30 311 9.0 11.0 0.00 0.00 0.00 47 1017.4
20260506094604 30 306 9.0 11.0 0.00 0.00 0.00 47 1017.4
20260506093101 29 311 8.0 11.0 0.00 0.00 0.00 47 1017.6
20260506091605 29 314 8.0 10.0 0.00 0.00 0.00 49 1017.6
20260506090104 28 322 7.0 9.0 0.00 0.00 0.00 50 1017.5
20260506084635 28 321 7.0 9.0 0.00 0.00 0.00 51 1017.4
20260506083101 29 323 6.0 10.0 0.00 0.00 0.00 48 1017.4
20260506081602 29 325 6.0 9.0 0.00 0.00 0.00 48 1017.5
20260506080104 28 319 4.0 8.0 0.00 0.00 0.00 50 1017.5
20260506073105 29 302 5.0 7.0 0.00 0.00 0.00 50 1017.6
20260506071603 30 306 5.0 8.0 0.00 0.00 0.00 48 1017.6
20260506061601 30 322 6.0 9.0 0.00 0.00 0.00 53 1017.5
20260506050104 34 294 5.0 7.0 0.00 0.00 0.00 46 1017.4
20260506044604 36 308 4.0 7.0 0.00 0.00 0.00 44 1017.4
20260506043059 37 287 7.0 8.0 0.00 0.00 0.00 42 1017.4
20260506041608 38 292 4.0 5.0 0.00 0.00 0.00 42 1017.4
20260506040059 38 306 3.0 4.0 0.00 0.00 0.00 42 1017.5
20260506034559 37 304 3.0 5.0 0.00 0.00 0.00 42 1017.5
20260506033102 37 314 3.0 4.0 0.00 0.00 0.00 43 1017.4
20260506031606 36 308 2.0 4.0 0.00 0.00 0.00 45 1017.4
20260506030100 36 324 4.0 5.0 0.00 0.00 0.00 44 1017.3
20260506024557 36 331 4.0 6.0 0.00 0.00 0.00 44 1017.2
20260506023108 36 349 5.0 9.0 0.00 0.00 0.00 44 1017.1
20260506021612 37 340 6.0 10.0 0.00 0.00 0.00 42 1016.9
20260506020058 39 346 6.0 10.0 0.00 0.00 0.00 40 1016.7
20260506014601 40 339 7.0 12.0 0.00 0.00 0.00 40 1016.7
20260506013110 40 31 12.0 16.0 0.00 0.00 0.00 38 1016.6
20260506011617 41 342 14.0 23.0 0.00 0.00 0.00 37 1016.5
20260506004601 42 24 15.0 22.0 0.00 0.00 0.00 36 1016.4
20260506003100 42 22 16.0 25.0 0.00 0.00 0.00 36 1016.4
20260506001559 42 336 16.0 26.0 0.00 0.00 0.00 36 1016.3
20260506000101 42 335 16.0 23.0 0.00 0.00 0.00 36 1016.4
20260505234559 42 331 14.0 24.0 0.00 0.00 0.00 36 1016.2
20260505233105 42 5 21.0 26.0 0.00 0.00 0.00 36 1016.1
20260505231613 42 59 18.0 25.0 0.00 0.00 0.00 37 1016.2
20260505230059 41 343 20.0 28.0 0.00 0.00 0.00 36 1016.2
20260505224604 42 345 18.0 28.0 0.00 0.00 0.00 37 1016.2
20260505223101 42 333 20.0 31.0 0.00 0.00 0.00 36 1016.1
20260505221604 42 338 20.0 32.0 0.00 0.00 0.00 37 1016.0
20260505220101 42 344 20.0 30.0 0.00 0.00 0.00 37 1016.0
20260505214600 42 333 19.0 29.0 0.00 0.00 0.00 37 1016.2
20260505213056 41 335 22.0 30.0 0.00 0.00 0.00 36 1016.2
20260505211556 41 335 22.0 33.0 0.00 0.00 0.00 37 1016.3
20260505210058 42 316 25.0 32.0 0.00 0.00 0.00 36 1016.2
20260505204559 41 19 23.0 33.0 0.00 0.00 0.00 37 1016.2
20260505203120 41 340 21.0 26.0 0.00 0.00 0.00 36 1016.3
20260505201604 42 15 18.0 30.0 0.00 0.00 0.00 36 1016.4
20260505200059 41 324 22.0 34.0 0.00 0.00 0.00 35 1016.4
20260505194558 41 338 15.0 29.0 0.00 0.00 0.00 36 1016.3
20260505193100 42 346 17.0 23.0 0.00 0.00 0.00 35 1016.3
20260505191611 40 22 20.0 29.0 0.00 0.00 0.00 38 1016.3
20260505190057 40 339 18.0 26.0 0.00 0.00 0.00 37 1016.3
20260505184557 40 338 21.0 41.0 0.00 0.00 0.00 38 1016.4
20260505183057 40 317 17.0 26.0 0.00 0.00 0.00 38 1016.3
20260505181559 39 331 22.0 32.0 0.00 0.00 0.00 40 1016.2
20260505180108 39 320 20.0 31.0 0.00 0.00 0.00 40 1016.3
20260505174606 39 339 18.0 35.0 0.00 0.00 0.00 40 1016.2
20260505173100 39 338 19.0 31.0 0.00 0.00 0.00 41 1016.4